Location: Congrier
(47.8099°N, 1.1170°W)
Time: 21:02:56
(UTC+00:00)

CZ-4 R/B - Pass Details

Date: 28 January 2023
Orbit: 577 x 585 km, 97.7° (Epoch: 21 March)

Event Time Altitude Azimuth Distance (km) Brightness Sun altitude
Rises 18:19:15 0° 168° (SSE) 2,781 7.9 -13.6°
Reaches altitude 10° 18:21:23 10° 169° (S) 1,887 7.1 -14.0°
Maximum altitude 18:25:29 81° 257° (WSW) 594 4.5 -14.6°
Drops below altitude 10° 18:29:37 10° 345° (NNW) 1,908 7.1 -15.3°
Sets 18:31:48 0° 346° (NNW) 2,813 8.0 -15.7°
